Simultaneous Nadir Overpasses (SNOs) Predictions

Prediction of SNOs between AURA and NPP Satellite Orbit:

Table of predicted SNOs for the next 14.0 days since TLE Epoch: 12/17/2022
Index Date (AURA) Time (AURA) Lat,Lon (AURA) SZA (AURA ) Date (NPP) Time (NPP) Lat,Lon (NPP) SZA (NPP ) Distance(km) Time Diff (sec)
1 12/19/2022 11:26:12 -79.38, 84.85 64.64 12/19/2022 11:25:40 -79.39, 84.95 64.63 2.10 32
2 12/19/2022 12:15:33 79.57,-106.22 115.11 12/19/2022 12:16:19 79.57,-106.24 115.08 0.45 46
3 12/22/2022 03:42:38 -79.47,-158.69 64.67 12/22/2022 03:42:36 -79.48,-158.56 64.69 2.97 2
4 12/22/2022 04:30:18 81.81, 46.94 109.77 12/22/2022 04:31:31 81.28, 47.08 109.46 59.10 73
5 12/24/2022 19:09:44 79.24, 148.07 115.67 12/24/2022 19:08:56 79.24, 148.03 115.71 0.71 48
6 12/24/2022 19:59:03 -79.56, -42.16 64.77 12/24/2022 19:59:32 -79.56, -42.09 64.81 1.61 29
7 12/27/2022 11:26:05 79.42, -94.86 115.40 12/27/2022 11:25:48 79.43, -94.77 115.39 2.03 17
8 12/27/2022 12:15:28 -79.58, 73.90 64.83 12/27/2022 12:16:29 -79.58, 73.81 64.86 1.97 61
9 12/30/2022 02:53:11 -79.20,-148.08 64.38 12/30/2022 02:52:09 -79.19,-148.14 64.32 1.51 62



Historial Predications of SNOs between AURA and NPP
